When you browse on this site, cookies collect data to enhance your experience and personalize the content and advertising you see.
Visit our Privacy Policy to learn more. By continuing to use the site, you agree to this use of cookies and data.
  • în România
  • Lista ţărilor
  • Pe 7 zile
  • Temperatura apei
  • Meteo pe hartă
  • Widget-uri
  • user-avatar
    Intrare

    Meteo pe oră la Leicester

    Astăzi, 15 Decembrie, Duminică

    Timp Temperatura Precipitaţii Vânt Presiune Umiditate
    00:00 +5°C° 0 mm 5 m/s 731 mmHg 92%
    01:00 +3°C° 0.4 mm 7 m/s 731 mmHg 87%
    02:00 +2°C° 0.4 mm 8 m/s 731 mmHg 81%
    03:00 +2°C° 0.4 mm 10 m/s 732 mmHg 76%
    04:00 +1°C° 0 mm 9 m/s 732 mmHg 72%
    05:00 +1°C° 0 mm 9 m/s 733 mmHg 68%
    06:00 0°C° 0 mm 7 m/s 734 mmHg 71%
    07:00 0°C° 0 mm 7 m/s 735 mmHg 73%
    08:00 +2°C° 0 mm 7 m/s 736 mmHg 76%
    09:00 +2°C° 0 mm 6 m/s 736 mmHg 78%
    10:00 +2°C° 0 mm 6 m/s 737 mmHg 77%
    11:00 +3°C° 0 mm 5 m/s 738 mmHg 75%
    12:00 +5°C° 0 mm 4 m/s 739 mmHg 80%
    13:00 +5°C° 0.2 mm 5 m/s 739 mmHg 80%
    14:00 +5°C° 0.2 mm 5 m/s 739 mmHg 80%
    15:00 +4°C° 0.2 mm 6 m/s 739 mmHg 80%
    16:00 +4°C° 0 mm 6 m/s 739 mmHg 80%
    17:00 +3°C° 0 mm 6 m/s 739 mmHg 81%
    18:00 +3°C° 0 mm 6 m/s 740 mmHg 81%
    19:00 +3°C° 0 mm 6 m/s 740 mmHg 82%
    20:00 +3°C° 0 mm 6 m/s 740 mmHg 83%
    21:00 +3°C° 0 mm 6 m/s 740 mmHg 84%
    22:00 +3°C° 0.4 mm 6 m/s 740 mmHg 86%
    23:00 +3°C° 0.4 mm 6 m/s 740 mmHg 87%

    Mâine, 16 Decembrie, Luni

    Timp Temperatura Precipitaţii Vânt Presiune Umiditate
    00:00 +4°C° 0.4 mm 6 m/s 740 mmHg 88%
    01:00 +3°C° 0 mm 6 m/s 740 mmHg 87%
    02:00 +3°C° 0 mm 5 m/s 740 mmHg 85%
    03:00 +3°C° 0 mm 5 m/s 740 mmHg 83%
    04:00 +3°C° 0 mm 5 m/s 740 mmHg 84%
    05:00 +2°C° 0 mm 5 m/s 740 mmHg 84%
    06:00 +2°C° 0 mm 5 m/s 740 mmHg 84%
    07:00 +2°C° 0 mm 5 m/s 741 mmHg 84%
    08:00 +3°C° 0 mm 4 m/s 742 mmHg 83%
    09:00 +3°C° 0 mm 4 m/s 742 mmHg 83%
    10:00 +4°C° 0 mm 4 m/s 743 mmHg 81%
    11:00 +4°C° 0 mm 3 m/s 743 mmHg 80%
    12:00 +5°C° 0 mm 3 m/s 743 mmHg 78%
    13:00 +5°C° 0 mm 3 m/s 743 mmHg 80%
    14:00 +5°C° 0 mm 2 m/s 743 mmHg 83%
    15:00 +5°C° 0 mm 2 m/s 743 mmHg 85%
    16:00 +5°C° 0 mm 2 m/s 743 mmHg 86%
    17:00 +4°C° 0 mm 2 m/s 743 mmHg 88%
    18:00 +4°C° 0 mm 2 m/s 743 mmHg 89%
    19:00 +5°C° 0 mm 1 m/s 743 mmHg 88%
    20:00 +5°C° 0 mm 1 m/s 743 mmHg 88%
    21:00 +5°C° 0 mm 1 m/s 743 mmHg 88%
    22:00 +5°C° 0 mm 1 m/s 743 mmHg 88%
    23:00 +5°C° 0 mm 1 m/s 743 mmHg 88%

    Poimâine, 17 Decembrie, Marţi

    Timp Temperatura Precipitaţii Vânt Presiune Umiditate
    00:00 +5°C° 0 mm 1 m/s 743 mmHg 88%
    01:00 +5°C° 0 mm 1 m/s 743 mmHg 89%
    02:00 +5°C° 0 mm 1 m/s 743 mmHg 90%
    03:00 +5°C° 0 mm 1 m/s 742 mmHg 91%
    04:00 +5°C° 0 mm 1 m/s 742 mmHg 91%
    05:00 +5°C° 0 mm 1 m/s 742 mmHg 92%
    06:00 +4°C° 0 mm 2 m/s 742 mmHg 93%
    07:00 +4°C° 0 mm 2 m/s 742 mmHg 93%
    08:00 +5°C° 0 mm 1 m/s 742 mmHg 94%
    09:00 +5°C° 0 mm 1 m/s 742 mmHg 94%
    10:00 +5°C° 0.1 mm 1 m/s 742 mmHg 93%
    11:00 +6°C° 0.1 mm 1 m/s 742 mmHg 91%
    12:00 +6°C° 0.1 mm 1 m/s 742 mmHg 90%
    13:00 +6°C° 0 mm 1 m/s 742 mmHg 90%
    14:00 +6°C° 0 mm 1 m/s 742 mmHg 90%
    15:00 +6°C° 0 mm 1 m/s 743 mmHg 91%
    16:00 +5°C° 0 mm 1 m/s 743 mmHg 91%
    17:00 +5°C° 0 mm 1 m/s 743 mmHg 92%
    18:00 +4°C° 0 mm 2 m/s 744 mmHg 93%
    19:00 +3°C° 0 mm 2 m/s 744 mmHg 93%
    20:00 +3°C° 0 mm 2 m/s 745 mmHg 93%
    21:00 +2°C° 0 mm 2 m/s 745 mmHg 93%
    22:00 +2°C° 0 mm 2 m/s 745 mmHg 93%
    23:00 +1°C° 0 mm 3 m/s 746 mmHg 92%

    18 Decembrie, Miercuri

    Timp Temperatura Precipitaţii Vânt Presiune Umiditate
    00:00 +1°C° 0 mm 3 m/s 746 mmHg 91%
    01:00 +1°C° 0 mm 2 m/s 746 mmHg 91%
    02:00 +1°C° 0 mm 2 m/s 747 mmHg 90%
    03:00 +1°C° 0 mm 2 m/s 747 mmHg 90%
    04:00 +1°C° 0 mm 2 m/s 747 mmHg 90%
    05:00 +1°C° 0 mm 2 m/s 748 mmHg 89%
    06:00 +1°C° 0 mm 2 m/s 748 mmHg 89%
    07:00 +1°C° 0 mm 2 m/s 748 mmHg 89%
    08:00 +1°C° 0 mm 2 m/s 749 mmHg 89%
    09:00 +1°C° 0 mm 2 m/s 749 mmHg 89%
    10:00 +2°C° 0 mm 2 m/s 749 mmHg 86%
    11:00 +3°C° 0 mm 2 m/s 749 mmHg 83%
    12:00 +3°C° 0 mm 3 m/s 749 mmHg 80%
    13:00 +3°C° 0 mm 3 m/s 748 mmHg 82%
    14:00 +3°C° 0 mm 3 m/s 748 mmHg 84%
    15:00 +2°C° 0 mm 3 m/s 747 mmHg 85%
    16:00 +1°C° 0 mm 4 m/s 747 mmHg 88%
    17:00 +1°C° 0 mm 4 m/s 746 mmHg 91%
    18:00 +1°C° 0 mm 4 m/s 746 mmHg 94%
    19:00 +1°C° 0 mm 5 m/s 746 mmHg 93%
    20:00 +1°C° 0 mm 5 m/s 745 mmHg 91%
    21:00 +1°C° 0 mm 6 m/s 745 mmHg 90%
    22:00 +2°C° 0 mm 6 m/s 744 mmHg 91%
    23:00 +2°C° 0 mm 6 m/s 743 mmHg 92%

    19 Decembrie, Joi

    Timp Temperatura Precipitaţii Vânt Presiune Umiditate
    00:00 +2°C° 0 mm 7 m/s 743 mmHg 93%
    01:00 +3°C° 0 mm 7 m/s 741 mmHg 92%
    02:00 +3°C° 0 mm 7 m/s 740 mmHg 92%
    03:00 +4°C° 0 mm 7 m/s 739 mmHg 92%
    04:00 +5°C° 1.2 mm 8 m/s 738 mmHg 93%
    05:00 +5°C° 1.2 mm 8 m/s 736 mmHg 93%
    06:00 +6°C° 1.2 mm 8 m/s 735 mmHg 94%
    07:00 +6°C° 0.1 mm 8 m/s 735 mmHg 90%
    08:00 +6°C° 0.1 mm 8 m/s 735 mmHg 87%
    09:00 +7°C° 0.1 mm 8 m/s 736 mmHg 84%
    10:00 +8°C° 0 mm 7 m/s 736 mmHg 83%
    11:00 +8°C° 0 mm 6 m/s 737 mmHg 83%
    12:00 +8°C° 0 mm 5 m/s 738 mmHg 82%
    13:00 +8°C° 0 mm 5 m/s 738 mmHg 84%
    14:00 +7°C° 0 mm 4 m/s 739 mmHg 86%
    15:00 +8°C° 0 mm 3 m/s 739 mmHg 88%
    16:00 +7°C° 0 mm 3 m/s 739 mmHg 90%
    17:00 +7°C° 0 mm 3 m/s 739 mmHg 92%
    18:00 +5°C° 0 mm 3 m/s 739 mmHg 93%
    19:00 +5°C° 0 mm 3 m/s 739 mmHg 94%
    20:00 +4°C° 0 mm 3 m/s 739 mmHg 94%
    21:00 +4°C° 0 mm 3 m/s 739 mmHg 95%
    22:00 +5°C° 0 mm 2 m/s 739 mmHg 95%
    23:00 +5°C° 0 mm 2 m/s 739 mmHg 96%

    20 Decembrie, Vineri

    Timp Temperatura Precipitaţii Vânt Presiune Umiditate
    00:00 +4°C° 0 mm 2 m/s 739 mmHg 96%
    01:00 +4°C° 0 mm 2 m/s 738 mmHg 96%
    02:00 +4°C° 0 mm 2 m/s 738 mmHg 96%
    03:00 +4°C° 0 mm 2 m/s 737 mmHg 97%
    04:00 +3°C° 0 mm 3 m/s 737 mmHg 97%
    05:00 +4°C° 0 mm 3 m/s 737 mmHg 97%
    06:00 +4°C° 0 mm 3 m/s 737 mmHg 97%
    07:00 +4°C° 0.1 mm 3 m/s 737 mmHg 97%
    08:00 +4°C° 0.1 mm 3 m/s 737 mmHg 97%
    09:00 +4°C° 0.1 mm 3 m/s 737 mmHg 97%
    10:00 +5°C° 0 mm 3 m/s 737 mmHg 95%
    11:00 +7°C° 0 mm 3 m/s 737 mmHg 93%
    12:00 +7°C° 0 mm 3 m/s 736 mmHg 91%
    13:00 +7°C° 0 mm 3 m/s 736 mmHg 92%
    14:00 +7°C° 0 mm 2 m/s 736 mmHg 92%
    15:00 +7°C° 0 mm 2 m/s 736 mmHg 92%
    16:00 +7°C° 0 mm 2 m/s 736 mmHg 92%
    17:00 +7°C° 0 mm 2 m/s 736 mmHg 92%
    18:00 +6°C° 0 mm 2 m/s 737 mmHg 92%
    19:00 +6°C° 0 mm 2 m/s 737 mmHg 93%
    20:00 +6°C° 0 mm 2 m/s 737 mmHg 93%
    21:00 +5°C° 0 mm 2 m/s 737 mmHg 94%
    22:00 +5°C° 0.1 mm 2 m/s 737 mmHg 94%
    23:00 +5°C° 0.1 mm 2 m/s 737 mmHg 94%
    Arată mai mult